#timestamp,LO_Frequency,Hit,StdDev 
1623470415.2,286047002.3,N
1623470435.1,286047002.6,N
1623470436.0,286047002.6,N
1623470455.8,286047002.7,N
1623470475.7,286047002.7,N
1623470495.5,286047002.4,N
1623470515.3,286047002.8,N
1623470535.2,286047002.3,N
1623470555.0,286046999.9,N
1623470555.9,286046999.9,N
1623470575.8,286047001.0,N
1623470595.6,286047000.3,N
1623470615.4,286047000.5,N
1623470635.3,286046999.7,N
1623470655.1,286046999.7,N
1623470675.8,286047002.5,N
1623470695.7,286047001.6,N
1623470715.5,286047001.6,N
1623470735.4,286047002.5,N
1623470755.2,286047001.5,N
1623470775.0,286047002.3,N
1623470775.9,286047002.3,N
1623470795.8,286047000.1,N
1623470815.6,286046999.8,N
1623470835.4,286047000.1,N
1623470855.3,286047002.2,N
1623470875.1,286047001.4,N
1623470895.9,286047000.2,N
1623470915.7,286047001.4,N
1623470935.5,286047001.9,N
1623470955.4,286047002.3,N
1623470975.2,286047002.4,N
1623470995.0,286047000.2,N
1623470995.9,286047000.2,N
1623471015.8,286047001.9,N
1623471035.6,286047002.6,N
1623471055.5,286047002.4,N
1623471075.3,286047000.2,N
1623471095.1,286046999.8,N
1623471115.9,286047000.2,N
1623471135.7,286046999.8,N
1623471155.6,286047002.1,N
1623471175.4,286047001.5,N
1623471195.2,286047001.8,N
1623471215.1,286047001.9,N
1623471216.0,286047001.9,N
1623471235.8,286047002.1,N
1623471255.7,286047001.9,N
1623471275.5,286047004.3,Y
1623471295.3,286047000.2,P
1623471315.2,286046998.6,N
1623471335.0,286047000.9,N
1623471335.9,286047000.9,N
1623471355.7,286047000.5,N
1623471375.6,286047000.1,N
1623471395.4,286047000.5,N
1623471415.3,286047001.0,N
1623471435.1,286047000.3,N
1623471436.0,286047000.3,N
1623471455.8,286047000.5,N
1623471475.7,286046999.8,N
1623471495.5,286047002.7,Y
1623471515.4,286047000.4,P
1623471535.2,286046999.7,P
1623471555.0,286047002.6,P
1623471555.9,286047002.6,N
1623471575.8,286047002.7,N
1623471595.6,286047002.7,N
1623471615.4,286046999.8,N
1623471635.3,286046999.8,N
1623471655.1,286047000.0,N
1623471675.9,286046999.7,N
1623471695.7,286047001.9,N
1623471715.5,286047001.8,N
1623471735.4,286047002.2,N
1623471755.2,286047000.2,N
1623471775.0,286047002.5,N
1623471775.9,286047002.5,N
1623471795.8,286047001.7,N
1623471815.6,286047002.8,N
1623471835.5,286047002.8,N
1623471855.3,286047000.2,N
1623471875.1,286047000.1,N
1623471895.9,286046999.7,N
1623471915.7,286047002.1,N
1623471935.6,286047002.7,N
1623471955.4,286047000.2,N
1623471975.2,286047002.8,N
1623471995.1,286047002.7,N
1623471996.0,286047002.7,N
1623472015.8,286047000.1,N
1623472035.6,286046999.7,N
1623472055.5,286047002.3,N
1623472075.3,286047001.4,N
1623472095.2,286047002.2,N
1623472115.9,286047002.2,N
1623472135.7,286047002.6,N
1623472155.6,286047001.5,N
1623472175.4,286047000.2,N
1623472195.3,286047000.0,N
1623472215.1,286046999.7,N
1623472216.0,286046999.7,N
1623472235.8,286047000.2,N
1623472255.7,286047000.4,N
1623472275.5,286047002.2,N
1623472295.4,286047002.4,N
1623472315.2,286047002.0,N
1623472335.0,286047002.4,N
1623472335.9,286047002.4,N
1623472355.8,286047002.7,N
1623472375.6,286047002.1,N
1623472395.4,286046999.9,N
1623472415.3,286046999.9,N
1623472435.1,286047000.9,N
1623472455.9,286047000.4,N
1623472475.7,286047000.9,N
1623472495.5,286046999.9,N
1623472515.4,286047000.5,N
1623472535.2,286047000.1,N
1623472555.0,286047000.5,N
1623472555.9,286047000.5,N
1623472575.8,286047000.3,N
1623472595.6,286047000.2,N
1623472615.5,286047002.7,N
1623472635.3,286047002.3,N
1623472655.1,286047000.1,N
1623472675.9,286047000.9,N
1623472695.7,286047000.4,N
1623472715.5,286047000.6,N
1623472735.4,286047000.0,N
1623472755.2,286047000.5,N
1623472775.1,286047000.0,N
1623472776.0,286047000.0,N
1623472795.8,286047000.3,N
1623472815.6,286046999.8,N
1623472835.5,286047000.3,N
1623472855.3,286047000.6,N
1623472875.1,286047000.5,N
1623472895.9,286047000.3,N
1623472915.7,286047000.3,N
1623472935.6,286047000.9,N
1623472955.4,286047002.4,Y
1623472975.2,286047000.6,P
1623472995.1,286047001.0,P
1623472996.0,286047001.0,P
1623473015.8,286046998.2,Y
1623473035.7,286046998.4,P
1623473055.5,286046998.9,N
1623473075.3,286046999.4,N
1623473095.2,286046999.1,N
1623473115.0,286046998.6,N
1623473115.9,286046998.6,N
1623473135.8,286046998.7,N
1623473155.6,286047001.2,N
1623473175.4,286047000.8,N
1623473195.3,286046998.1,N
1623473215.1,286046998.2,N
1623473235.8,286046998.3,N
1623473255.7,286046998.6,N
1623473275.5,286047000.1,N
1623473295.4,286047001.2,N
1623473315.2,286046998.2,N
1623473335.0,286046998.8,N
1623473335.9,286046998.8,N
1623473355.8,286046998.2,N
1623473375.6,286046998.2,N
1623473395.4,286046998.1,N
1623473415.3,286047000.8,N
1623473435.1,286047000.8,N
1623473455.9,286046998.6,N
1623473475.7,286046998.6,N
1623473495.5,286046999.1,N
1623473515.4,286046998.4,N
1623473535.2,286046998.4,N
1623473555.0,286046998.8,N
1623473555.9,286046998.8,N
1623473575.8,286046999.6,N
1623473595.6,286046998.7,N
1623473615.5,286046998.2,N
1623473635.3,286046998.6,N
1623473655.1,286046998.7,N
1623473675.9,286047001.2,N
1623473695.7,286046998.6,N
1623473715.5,286046998.7,N
1623473735.4,286046998.8,N
1623473755.2,286046996.9,Y
1623473775.1,286046998.2,P
1623473776.0,286046998.2,P
1623473795.8,286047001.0,N
1623473815.6,286046998.3,N
1623473835.5,286047001.0,N
1623473855.3,286046998.8,N
1623473875.2,286046998.4,N
1623473895.9,286046998.6,N
1623473915.7,286046999.6,N
1623473935.6,286046996.6,Y
1623473955.4,286047000.9,P
1623473975.3,286047000.7,N
1623473995.1,286047000.9,N
1623473996.0,286047000.9,N
